#timestamp,LO_Frequency,Hit,StdDev 
1665820815.8,286047000.3,N
1665820835.7,286047002.8,Y
1665820855.5,286047001.4,P
1665820875.3,286047004.3,P
1665820895.2,286047005.9,N
1665820915.0,286047001.8,N
1665820915.9,286047001.8,N
1665820935.7,286047002.6,N
1665820955.6,286047003.9,N
1665820975.4,286047001.8,N
1665820995.3,286047000.3,N
1665821015.1,286047002.2,N
1665821016.0,286047002.2,N
1665821035.8,286047001.4,N
1665821055.7,286047003.2,N
1665821075.5,286047003.3,N
1665821095.3,286047002.3,N
1665821115.2,286047002.3,N
1665821135.0,286047002.0,N
1665821135.9,286047002.0,N
1665821155.8,286047004.3,N
1665821175.6,286047004.4,N
1665821195.4,286047005.4,Y
1665821215.3,286047001.7,P
1665821235.1,286047001.7,P
1665821255.9,286047001.5,P
1665821275.7,286047001.5,Y
1665821295.5,286046998.1,P
1665821315.4,286046999.7,N
1665821335.2,286047000.0,N
1665821355.0,286047000.9,N
1665821355.9,286047000.9,N
1665821375.8,286047000.9,N
1665821395.6,286047000.1,N
1665821415.5,286047000.2,N
1665821435.3,286046999.9,N
1665821455.1,286046999.4,N
1665821475.9,286046999.0,N
1665821495.7,286046998.8,N
1665821515.5,286046998.6,N
1665821535.4,286047001.0,N
1665821555.2,286047002.3,N
1665821575.1,286047000.0,N
1665821576.0,286047000.0,N
1665821595.8,286047000.5,N
1665821615.6,286047000.1,N
1665821635.5,286047000.2,N
1665821655.3,286047002.8,N
1665821675.1,286047002.5,N
1665821695.9,286047001.9,N
1665821715.7,286047002.5,N
1665821735.6,286047001.3,N
1665821755.4,286047002.4,N
1665821775.2,286047002.2,N
1665821795.1,286047002.4,N
1665821796.0,286047002.4,N
1665821815.8,286047002.5,N
1665821835.7,286047002.3,N
1665821855.5,286047002.4,N
1665821875.3,286047002.8,N
1665821895.2,286047000.5,N
1665821915.9,286047001.0,N
1665821935.7,286047001.2,N
1665821955.6,286047001.1,N
1665821975.4,286047000.7,N
1665821995.3,286046998.5,N
1665822015.1,286046998.4,N
1665822016.0,286046998.4,N
1665822035.8,286046999.0,N
1665822055.7,286046999.2,N
1665822075.5,286046999.0,N
1665822095.4,286046999.2,N
1665822115.2,286046999.6,N
1665822135.0,286046999.5,N
1665822135.9,286046999.5,N
1665822155.8,286046998.8,N
1665822175.6,286046999.3,N
1665822195.4,286046999.4,N
1665822215.3,286046997.0,N
1665822235.1,286046997.0,N
1665822255.9,286046997.1,N
1665822275.7,286046997.5,N
1665822295.5,286046997.5,N
1665822315.4,286046995.2,N
1665822335.2,286046995.1,N
1665822355.1,286046997.6,N
1665822356.0,286046997.6,N
1665822375.8,286046998.0,N
1665822395.6,286046995.0,N
1665822415.5,286046995.6,N
1665822435.3,286046993.5,Y
1665822455.2,286046997.8,P
1665822475.9,286046997.1,P
1665822495.7,286046997.7,P
1665822515.6,286046997.1,Y
1665822535.4,286046998.6,P
1665822555.2,286046998.1,P
1665822575.1,286047000.2,N
1665822576.0,286047000.2,N
1665822595.8,286047001.2,N
1665822615.7,286046998.1,N
1665822635.5,286047001.1,N
1665822655.3,286047001.2,N
1665822675.2,286046998.2,N
1665822695.0,286046998.5,N
1665822695.9,286046998.5,N
1665822715.8,286046998.3,N
1665822735.6,286046998.9,N
1665822755.4,286046997.0,N
1665822775.3,286046998.7,N
1665822795.1,286046998.8,N
1665822815.8,286046999.2,N
1665822835.7,286046999.0,N
1665822855.5,286046996.7,N
1665822875.4,286046999.5,N
1665822895.2,286046999.3,N
1665822915.0,286046997.4,N
1665822915.9,286046997.4,N
1665822935.8,286046997.7,N
1665822955.6,286046997.6,N
1665822975.4,286046998.0,N
1665822995.3,286046997.9,N
1665823015.1,286046997.5,N
1665823035.9,286046997.8,N
1665823055.7,286046997.2,N
1665823075.5,286046997.0,N
1665823095.4,286046997.0,N
1665823115.2,286046997.3,N
1665823135.1,286046997.3,N
1665823136.0,286046997.3,N
1665823155.8,286046998.0,N
1665823175.6,286046997.1,N
1665823195.5,286046996.8,Y
1665823215.3,286046998.9,P
1665823235.2,286046999.0,N
1665823255.9,286046999.1,N
1665823275.7,286046997.1,Y
1665823295.6,286046998.8,P
1665823315.4,286046998.8,P
1665823335.3,286047000.7,P
1665823355.1,286046998.5,N
1665823356.0,286046998.5,N
1665823375.8,286046998.6,N
1665823395.7,286046998.4,N
1665823415.5,286046999.0,N
1665823435.3,286046998.7,N
1665823455.2,286046999.6,N
1665823475.0,286046999.2,N
1665823475.9,286046999.2,N
1665823495.8,286046999.2,N
1665823515.6,286046996.5,Y
1665823535.4,286047000.7,P
1665823555.3,286047000.2,N
1665823575.1,286047000.0,N
1665823595.9,286047001.0,N
1665823615.7,286047000.1,N
1665823635.5,286047002.7,Y
1665823655.4,286047000.5,P
1665823675.2,286046998.6,P
1665823695.0,286046998.3,N
1665823695.9,286046998.3,N
1665823715.8,286046998.9,N
1665823735.6,286046998.2,N
1665823755.5,286047001.1,N
1665823775.3,286046999.3,N
1665823795.1,286046999.3,N
1665823815.9,286046998.8,N
1665823835.7,286046999.2,N
1665823855.6,286046996.9,Y
1665823875.4,286046998.8,P
1665823895.2,286046999.1,P
1665823915.1,286046999.4,P
1665823916.0,286046999.4,N
1665823935.8,286046998.5,Y
1665823955.7,286047001.2,P
1665823975.5,286046998.1,N
1665823995.3,286046998.6,N
1665824015.2,286046998.2,N
1665824035.0,286047000.9,N
1665824035.9,286047000.9,N
1665824055.7,286047000.3,N
1665824075.6,286047000.4,N
1665824095.4,286047000.7,N
1665824115.3,286047000.6,N
1665824135.1,286047000.3,N
1665824136.0,286047000.3,N
1665824155.8,286047000.5,N
1665824175.7,286047001.1,N
1665824195.5,286046998.6,N
1665824215.4,286047001.2,N
1665824235.2,286047000.5,N
1665824255.0,286047000.7,N
1665824255.9,286047000.7,N
1665824275.8,286047000.3,N
1665824295.6,286047000.1,N
1665824315.5,286047002.3,N
1665824335.3,286047002.4,N
1665824355.1,286046999.7,N
1665824375.9,286046999.8,N
1665824395.7,286047001.5,N
